Location: Althorst
(53.6379°N, 10.7715°E)
Time: 10:21:40
(UTC+00:00)

FengYun 1-2 T - Pass Details

Date: 10 December 2019
Orbit: 847 x 880 km, 98.7° (Epoch: 28 January)

Event Time Altitude Azimuth Distance (km) Brightness Sun altitude
Rises 17:08:26 0° 161° (SSE) 3,399 7.3 -18.1°
Reaches altitude 10° 17:10:47 10° 161° (SSE) 2,469 6.6 -18.4°
Maximum altitude 17:16:16 88° 76° (ENE) 859 4.1 -19.2°
Drops below altitude 10° 17:21:50 10° 344° (NNW) 2,498 6.7 -20.0°
Sets 17:24:13 0° 345° (NNW) 3,443 7.4 -20.4°
